STARLINK-2526 (48378 NORAD) Tracking and Keplerian Element Data

This shows tracking and keplerian element data for the satellite.

Feedback or suggestion? Click here.




ElementValue
Catalog48378
NameSTARLINK-2526
Epoch Orbit1459
Epoch Day215.03119356
Epoch Year2021
RAAN331.8895
Inclination53.0575
Eccentricity0.0001056
Argument of Perigee95.038
Mean Anonmoly265.073
Mean Motion15.06383699
Decay Rate7.3E-06
L11 48378U 21038AB 21215.03119356 .00000730 00000-0 67916-4 0 9996
L22 48378 53.0575 331.8895 0001056 95.0380 265.0730 15.06383699 14593

Live tracking and technical data element details for STARLINK-2526 (NORAD 48378). STARLINK-2526 can be tracked NOW for your location showing map with azimuth and elevation plus other details from your city location.

Track the satellite on the map from your city or location and see movement details for azimuth, elevation, latitude, longitude, range, height, and movement on the map or in text.







IsCatalogInMostPopularTable: catalog: 48378, numindb: 30
Update: records affected: 1



GetName: 48378 STARLINK-2526

Hit Count: updated at: Tue, 03 Aug 2021 20:52:20 GMT